Location: Beadle
(51.4667°N, 109.0000°W)
Time: 09:47:42
(UTC+00:00)

deb Explorer IX - Pass Details

Date: 30 May 2022
Orbit: 535 x 1068 km, 38.8° (Epoch: 04 July)

Event Time Altitude Azimuth Distance (km) Brightness Sun altitude
Rises 18:35:00 0° 242° (WSW) 3,831 ? 59.4°
Reaches altitude 10° 18:38:13 10° 230° (SW) 2,841 ? 59.6°
Maximum altitude 18:43:47 26° 177° (S) 1,814 ? 59.8°
Drops below altitude 10° 18:48:56 10° 123° (ESE) 2,608 ? 60.0°
Sets 18:51:46 0° 111° (ESE) 3,460 ? 60.1°
